TimeEDT,TemperatureF,Dew PointF,Humidity,Sea Level PressureIn,VisibilityMPH,Wind Direction,Wind SpeedMPH,Gust SpeedMPH,PrecipitationIn,Events,Conditions,WindDirDegrees,DateUTC
12:15 AM,50.0,50.0,100,30.23,6.0,Calm,Calm,-,N/A,,Partly Cloudy,0,2013-09-29 04:15:00
12:35 AM,50.0,50.0,100,30.23,8.0,Calm,Calm,-,N/A,,Partly Cloudy,0,2013-09-29 04:35:00
12:55 AM,48.2,48.2,100,30.22,10.0,NW,3.5,-,N/A,,Clear,310,2013-09-29 04:55:00
1:15 AM,50.0,50.0,100,30.22,10.0,Calm,Calm,-,N/A,,Clear,0,2013-09-29 05:15:00
1:35 AM,50.0,48.2,94,30.22,10.0,Calm,Calm,-,N/A,,Clear,0,2013-09-29 05:35:00
1:55 AM,48.2,48.2,100,30.22,8.0,Calm,Calm,-,N/A,,Clear,0,2013-09-29 05:55:00
2:15 AM,48.2,48.2,100,30.21,1.5,Calm,Calm,-,N/A,,Clear,0,2013-09-29 06:15:00
2:35 AM,46.4,46.4,100,30.20,0.8,Calm,Calm,-,N/A,,Unknown,0,2013-09-29 06:35:00
2:55 AM,48.2,48.2,100,30.20,4.0,Calm,Calm,-,N/A,,Clear,0,2013-09-29 06:55:00
3:15 AM,46.4,46.4,100,30.20,10.0,Calm,Calm,-,N/A,,Clear,0,2013-09-29 07:15:00
3:35 AM,46.4,46.4,100,30.19,10.0,Calm,Calm,-,N/A,,Clear,0,2013-09-29 07:35:00
3:55 AM,46.4,46.4,100,30.19,2.5,Calm,Calm,-,N/A,,Clear,0,2013-09-29 07:55:00
4:15 AM,46.4,46.4,100,30.19,1.5,Calm,Calm,-,N/A,,Clear,0,2013-09-29 08:15:00
4:35 AM,44.6,44.6,100,30.19,10.0,Calm,Calm,-,N/A,,Clear,0,2013-09-29 08:35:00
4:55 AM,46.4,44.6,93,30.19,10.0,Calm,Calm,-,N/A,,Clear,0,2013-09-29 08:55:00
5:15 AM,46.4,44.6,93,30.19,2.0,Calm,Calm,-,N/A,,Clear,0,2013-09-29 09:15:00
5:35 AM,44.6,44.6,100,30.19,2.5,Calm,Calm,-,N/A,,Clear,0,2013-09-29 09:35:00
5:55 AM,44.6,44.6,100,30.19,10.0,Calm,Calm,-,N/A,,Clear,0,2013-09-29 09:55:00
6:15 AM,44.6,44.6,100,30.19,10.0,Calm,Calm,-,N/A,,Clear,0,2013-09-29 10:15:00
6:45 AM,44.6,44.6,100,30.19,5.0,Calm,Calm,-,N/A,,Clear,0,2013-09-29 10:45:00
7:45 AM,42.8,42.8,100,30.20,8.0,Calm,Calm,-,N/A,,Clear,0,2013-09-29 11:45:00
8:45 AM,50.0,50.0,100,30.20,10.0,Calm,Calm,-,N/A,,Clear,0,2013-09-29 12:45:00
9:45 AM,60.8,57.2,88,30.20,10.0,Calm,Calm,-,N/A,,Clear,0,2013-09-29 13:45:00
11:50 AM,66.2,53.6,64,30.17,10.0,NE,5.8,-,N/A,,Clear,50,2013-09-29 15:50:00
12:50 PM,71.6,50.0,46,30.16,10.0,NW,4.6,-,N/A,,Partly Cloudy,310,2013-09-29 16:50:00
1:45 PM,71.6,51.8,50,30.13,10.0,West,3.5,-,N/A,,Clear,280,2013-09-29 17:45:00
4:45 PM,69.8,53.6,56,30.07,10.0,Variable,5.8,-,N/A,,Clear,0,2013-09-29 20:45:00
5:45 PM,69.8,53.6,56,30.08,10.0,Variable,5.8,-,N/A,,Clear,0,2013-09-29 21:45:00
6:50 PM,64.4,57.2,77,30.08,10.0,Calm,Calm,-,N/A,,Clear,0,2013-09-29 22:50:00
8:15 PM,57.2,55.4,94,30.08,10.0,Calm,Calm,-,N/A,,Clear,0,2013-09-30 00:15:00
8:35 PM,57.2,55.4,94,30.09,10.0,Calm,Calm,-,N/A,,Clear,0,2013-09-30 00:35:00
8:55 PM,57.2,55.4,94,30.08,10.0,Calm,Calm,-,N/A,,Clear,0,2013-09-30 00:55:00
9:15 PM,57.2,55.4,94,30.08,10.0,Calm,Calm,-,N/A,,Clear,0,2013-09-30 01:15:00
9:35 PM,55.4,55.4,100,30.08,10.0,Calm,Calm,-,N/A,,Clear,0,2013-09-30 01:35:00
9:55 PM,53.6,53.6,100,30.08,10.0,Calm,Calm,-,N/A,,Clear,0,2013-09-30 01:55:00
10:15 PM,53.6,51.8,94,30.08,10.0,Calm,Calm,-,N/A,,Clear,0,2013-09-30 02:15:00
10:35 PM,53.6,53.6,100,30.08,10.0,Calm,Calm,-,N/A,,Clear,0,2013-09-30 02:35:00
10:55 PM,51.8,51.8,100,30.09,5.0,Calm,Calm,-,N/A,,Clear,0,2013-09-30 02:55:00
11:15 PM,53.6,51.8,94,30.09,10.0,Calm,Calm,-,N/A,,Clear,0,2013-09-30 03:15:00
11:35 PM,50.0,48.2,94,30.08,5.0,Calm,Calm,-,N/A,,Clear,0,2013-09-30 03:35:00
11:55 PM,51.8,51.8,100,30.08,10.0,Calm,Calm,-,N/A,,Clear,0,2013-09-30 03:55:00